EW5383 Weather Reports


Display with metric or nautical units.
time (UTC)temp
F
wind
direction
speed
MPH
gust
MPH
rain 1hr
in
rain 24hr
in
rain mn
in
humidity
%
barometer
mb
20260904043054 0 0.0 0.0 0.00 0.23 0.00 1014.3
20260904041546 0 0.0 0.0 0.00 0.23 0.00 1014.4
20260904040042 0 0.0 0.0 0.00 0.23 0.00 1014.3
20260904034537 0 0.0 0.0 0.00 0.23 0.23 1014.4
20260904033033 0 0.0 0.0 0.00 0.23 0.23 1014.5
20260904031528 0 0.0 0.0 0.00 0.23 0.23 1014.4
20260904030024 78 107 0.0 1.0 0.00 0.23 0.23 1 1014.3
20260904024532 78 220 0.0 1.0 0.00 0.23 0.23 1 1014.1
20260904023016 79 244 0.0 1.0 0.00 0.23 0.23 1 1013.9
20260904021515 79 210 0.0 2.0 0.00 0.23 0.23 1 1013.9
20260904020006 79 116 0.0 1.0 0.00 0.23 0.23 1 1014.1
20260904014502 79 174 0.0 0.0 0.00 0.23 0.23 1 1014.1
20260904013118 79 126 0.0 1.0 0.00 0.23 0.23 1 1014.0
20260904011553 79 110 0.0 1.0 0.00 0.23 0.23 1 1014.0
20260904010052 79 214 0.0 0.0 0.00 0.23 0.23 1 1013.9
20260904004544 79 215 0.0 0.0 0.02 0.23 0.23 1 1013.5
20260904003042 80 214 0.0 0.0 0.02 0.23 0.23 1 1013.3
20260904001536 80 214 0.0 0.0 0.02 0.23 0.23 1 1013.4
20260904000030 81 252 0.0 0.0 0.02 0.23 0.23 1 1013.4
20260903234538 81 252 0.0 0.0 0.00 0.45 0.21 1 1013.3
20260903233029 81 240 0.0 0.0 0.00 0.45 0.21 1 1013.3
20260903231517 81 325 0.0 0.0 0.13 0.45 0.21 1 1013.2
20260903230012 81 325 0.0 0.0 0.14 0.45 0.21 1 1013.1
20260903224508 81 325 0.0 0.0 0.14 0.45 0.21 1 1013.1
20260903223004 82 3 0.0 1.0 0.14 0.45 0.21 1 1012.9
20260903221601 87 41 0.0 0.0 0.01 0.32 0.08 1 1012.8
20260903220056 87 41 0.0 0.0 0.00 0.31 0.07 16 1012.5
20260903214552 89 41 0.0 0.0 0.00 0.31 0.07 29 1012.4
20260903213046 89 41 0.0 0.0 0.00 0.31 0.07 48 1012.2
20260903211600 90 37 0.0 0.0 0.00 0.31 0.07 49 1012.1
20260903210039 90 239 0.0 0.0 0.00 0.31 0.07 54 1012.1
20260903204533 92 51 0.0 0.0 0.00 0.85 0.07 58 1012.3
20260903203032 94 244 0.0 0.0 0.00 0.85 0.07 55 1012.3
20260903201523 92 66 0.0 0.0 0.00 0.85 0.07 49 1012.6
20260903200020 91 110 0.0 0.0 0.00 0.85 0.07 52 1012.8
20260903194515 90 169 0.0 0.0 0.04 0.85 0.07 22 1013.0
20260903193010 87 103 0.0 0.0 0.07 0.85 0.07 1 1013.3
20260903191510 84 92 0.0 0.0 0.07 0.85 0.07 1 1013.5
20260903190002 83 60 0.0 0.0 0.07 0.85 0.07 1 1013.4
20260903184601 83 32 0.0 0.0 0.03 0.81 0.03 1 1013.3
20260903183053 84 48 0.0 0.0 0.00 0.78 0.00 1 1013.9
20260903181550 84 306 0.0 0.0 0.00 0.78 0.00 1 1014.1
20260903180044 85 168 0.0 0.0 0.00 0.78 0.00 1 1013.9
20260903174540 87 267 0.0 0.0 0.00 0.78 0.00 1 1014.3
20260903173039 90 236 0.0 1.0 0.00 0.78 0.00 41 1014.0
20260903171535 94 176 0.0 0.0 0.00 0.78 0.00 58 1013.9
20260903170031 92 227 0.0 0.0 0.00 0.78 0.00 56 1013.9
20260903164522 91 120 0.0 0.0 0.00 0.78 0.00 54 1014.1
20260903163018 91 195 0.0 0.0 0.00 0.78 0.00 50 1014.3
20260903161514 91 110 0.0 0.0 0.00 0.78 0.00 39 1014.4
20260903160009 89 172 0.0 1.0 0.00 0.78 0.00 28 1014.7
20260903154504 89 203 0.0 0.0 0.00 0.78 0.00 9 1014.7
20260903153109 88 108 0.0 0.0 0.00 0.78 0.00 7 1014.8
20260903151558 88 159 0.0 1.0 0.00 0.78 0.00 1 1014.8
20260903150052 87 117 0.0 1.0 0.00 0.78 0.00 1 1014.7
20260903144547 87 105 0.0 1.0 0.00 0.78 0.00 1 1014.5
20260903143048 86 171 0.0 1.0 0.00 0.78 0.00 1 1014.5
20260903141540 86 122 0.0 1.0 0.00 0.78 0.00 1 1014.4
20260903140041 85 210 0.0 1.0 0.00 0.78 0.00 1 1014.5
20260903134530 84 202 0.0 0.0 0.00 0.78 0.00 1 1014.6
20260903133027 84 97 0.0 1.0 0.00 0.78 0.00 1 1014.5
20260903131521 83 155 0.0 0.0 0.00 0.78 0.00 1 1014.5
20260903130016 82 187 0.0 0.0 0.00 0.78 0.00 1 1014.5
20260903124521 80 175 0.0 0.0 0.00 0.78 0.00 1 1014.4
20260903123014 79 207 0.0 1.0 0.00 0.78 0.00 1 1014.3
20260903121502 78 167 0.0 0.0 0.00 0.78 0.00 1 1014.2
20260903120108 77 195 0.0 0.0 0.00 0.78 0.00 1 1014.0
20260903114556 0 0.0 0.0 0.00 0.78 0.00 1013.8
20260903113049 0 0.0 0.0 0.00 0.78 0.00 1013.4
20260903111545 0 0.0 0.0 0.00 0.78 0.00 1013.4
20260903110044 0 0.0 0.0 0.00 0.78 0.00 1013.4
20260903104536 0 0.0 0.0 0.00 0.78 0.00 1013.4
20260903103032 0 0.0 0.0 0.00 0.78 0.00 1013.3
20260903101527 0 0.0 0.0 0.00 0.78 0.00 1013.3
20260903100024 0 0.0 0.0 0.00 0.78 0.00 1013.0
20260903094522 0 0.0 0.0 0.00 0.78 0.00 1012.8
20260903093018 0 0.0 0.0 0.00 0.78 0.00 1012.6
20260903091511 0 0.0 0.0 0.00 0.78 0.00 1012.4
20260903090006 0 0.0 0.0 0.00 0.78 0.00 1012.4
20260903084501 0 0.0 0.0 0.00 0.78 0.00 1012.3
20260903083104 0 0.0 0.0 0.00 0.78 0.00 1012.3
20260903081558 0 0.0 0.0 0.00 0.78 0.00 1012.3
20260903080050 0 0.0 0.0 0.00 0.78 0.00 1012.6
20260903074544 0 0.0 0.0 0.00 0.78 0.00 1012.7
20260903073040 0 0.0 0.0 0.00 0.78 0.00 1012.8
20260903071543 0 0.0 0.0 0.00 0.78 0.00 1012.7
20260903070031 0 0.0 0.0 0.00 0.78 0.00 1012.7
20260903064526 0 0.0 0.0 0.00 0.78 0.00 1012.7
20260903063037 0 0.0 0.0 0.00 0.78 0.00 1013.0
20260903061517 0 0.0 0.0 0.00 0.78 0.00 1013.3
20260903060035 0 0.0 0.0 0.00 0.78 0.00 1013.5
20260903054509 0 0.0 0.0 0.00 0.78 0.00 1013.4
20260903053004 0 0.0 0.0 0.00 0.78 0.00 1013.4
20260903051608 0 0.0 0.0 0.00 0.78 0.00 1013.6
20260903050056 0 0.0 0.0 0.00 0.78 0.00 1013.9
20260903044552 0 0.0 0.0 0.00 0.78 0.00 1014.1